DO3HUM-5 Weather Reports


Display with metric or nautical units.
time (UTC)temp
F
wind
direction
speed
MPH
gust
MPH
rain 1hr
in
rain 24hr
in
rain mn
in
humidity
%
barometer
mb
20260905174558 64 0.0 0.0 0.00 0.17 0.00 64 1027.9
20260905173523 65 304 0.0 2.0 0.00 0.17 0.00 62 1027.8
20260905172109 65 293 1.0 2.0 0.00 0.17 0.00 63 1027.6
20260905170546 64 205 1.0 4.0 0.00 0.17 0.00 66 1027.3
20260905165022 63 257 0.0 2.0 0.00 0.17 0.00 71 1027.2
20260905164111 65 293 0.0 2.0 0.00 0.17 0.00 71 1027.2
20260905162520 64 203 1.0 4.0 0.00 0.17 0.00 72 1027.1
20260905161608 63 191 1.0 4.0 0.00 0.17 0.00 72 1027.0
20260905160557 63 0.0 2.0 0.00 0.17 0.00 73 1026.8
20260905155610 64 288 1.0 4.0 0.00 0.17 0.00 71 1026.9
20260905154556 64 302 2.0 7.0 0.00 0.17 0.00 70 1026.6
20260905153523 66 287 1.0 4.0 0.00 0.17 0.00 64 1026.3
20260905152056 68 0.0 2.0 0.00 0.17 0.00 56 1026.3
20260905151020 69 280 3.0 15.0 0.00 0.17 0.00 54 1025.8
20260905150109 69 293 5.0 16.0 0.00 0.17 0.00 53 1025.7
20260905144556 69 236 4.0 8.0 0.00 0.17 0.00 53 1025.5
20260905143521 70 309 5.0 14.0 0.00 0.17 0.00 52 1025.6
20260905142056 72 270 3.0 6.0 0.00 0.17 0.00 51 1025.5
20260905141020 71 306 6.0 18.0 0.00 0.17 0.00 52 1025.4
20260905140114 73 276 2.0 6.0 0.00 0.17 0.00 50 1025.5
20260905134557 72 237 5.0 13.0 0.00 0.17 0.00 51 1025.5
20260905133607 71 264 6.0 14.0 0.00 0.17 0.00 52 1025.3
20260905132558 72 302 6.0 14.0 0.00 0.17 0.00 52 1025.4
20260905131522 69 293 5.0 15.0 0.00 0.17 0.00 55 1025.5
20260905130056 69 23 4.0 11.0 0.00 0.17 0.00 56 1025.5
20260905125045 69 301 5.0 11.0 0.00 0.17 0.00 55 1025.4
20260905124032 70 268 4.0 14.0 0.00 0.17 0.00 54 1025.6
20260905123020 70 282 5.0 15.0 0.00 0.17 0.00 54 1025.5
20260905122111 69 268 6.0 15.0 0.00 0.17 0.00 53 1025.5
20260905120557 69 280 6.0 14.0 0.00 0.17 0.00 52 1025.5
20260905115607 71 338 5.0 14.0 0.00 0.17 0.00 51 1025.4
20260905114558 71 256 6.0 13.0 0.00 0.17 0.00 52 1025.2
20260905113521 71 289 4.0 11.0 0.00 0.17 0.00 52 1025.4
20260905112109 70 291 4.0 15.0 0.00 0.17 0.00 54 1025.4
20260905110557 69 305 4.0 11.0 0.00 0.17 0.00 55 1025.5
20260905105609 69 338 5.0 16.0 0.00 0.17 0.00 56 1025.5
20260905104109 68 273 4.0 9.0 0.00 0.17 0.00 59 1025.5
20260905102533 68 340 7.0 15.0 0.00 0.17 0.00 59 1025.6
20260905101521 67 284 4.0 13.0 0.00 0.17 0.00 61 1025.6
20260905100110 68 245 6.0 14.0 0.00 0.17 0.00 60 1025.6
20260905094556 68 226 4.0 11.0 0.00 0.17 0.00 60 1025.5
20260905093521 66 289 3.0 11.0 0.00 0.17 0.00 63 1025.5
20260905092032 67 285 5.0 16.0 0.00 0.17 0.00 64 1025.4
20260905091021 67 290 3.0 9.0 0.00 0.17 0.00 63 1025.3
20260905090110 67 341 5.0 13.0 0.00 0.17 0.00 64 1025.2
20260905084556 66 293 6.0 17.0 0.00 0.17 0.00 66 1025.0
20260905083521 65 283 6.0 21.0 0.00 0.17 0.00 67 1025.0
20260905082032 65 342 5.0 17.0 0.00 0.17 0.00 67 1024.9
20260905081022 65 302 5.0 11.0 0.00 0.17 0.00 70 1024.8
20260905080109 64 300 5.0 13.0 0.00 0.17 0.00 71 1024.6
20260905074557 64 307 5.0 11.0 0.00 0.17 0.00 73 1024.7
20260905073523 63 305 5.0 14.0 0.00 0.17 0.00 73 1024.6
20260905072056 63 315 4.0 8.0 0.00 0.17 0.00 74 1024.5
20260905071022 62 310 5.0 13.0 0.00 0.17 0.00 76 1024.6
20260905070109 62 270 5.0 13.0 0.00 0.17 0.00 76 1024.4
20260905064532 61 238 3.0 7.0 0.00 0.17 0.00 77 1024.4
20260905063522 61 272 3.0 9.0 0.00 0.17 0.00 78 1024.4
20260905062056 60 338 3.0 4.0 0.00 0.17 0.00 80 1024.1
20260905061045 60 270 3.0 8.0 0.00 0.17 0.00 80 1024.1
20260905060033 60 296 3.0 8.0 0.00 0.17 0.00 81 1023.9
20260905055021 59 302 2.0 7.0 0.00 0.17 0.00 81 1023.8
20260905054109 59 311 3.0 8.0 0.00 0.17 0.00 82 1023.7
20260905052520 58 305 1.0 8.0 0.00 0.17 0.00 83 1023.7
20260905051608 57 325 2.0 6.0 0.00 0.17 0.00 84 1023.7
20260905050111 57 315 2.0 4.0 0.00 0.17 0.00 84 1023.5
20260905044557 57 308 2.0 6.0 0.00 0.17 0.00 84 1023.3
20260905043546 57 306 2.0 4.0 0.00 0.17 0.00 85 1023.2
20260905042533 57 278 1.0 4.0 0.00 0.17 0.00 85 1023.1
20260905041522 57 313 2.0 4.0 0.00 0.17 0.00 84 1022.9
20260905040032 57 312 1.0 4.0 0.00 0.17 0.00 87 1022.9
20260905035021 57 301 1.0 4.0 0.00 0.17 0.00 87 1022.9
20260905034111 57 305 2.0 4.0 0.00 0.17 0.00 87 1022.8
20260905032545 57 293 2.0 4.0 0.00 0.17 0.00 88 1022.8
20260905031533 57 311 1.0 4.0 0.00 0.17 0.00 89 1022.7
20260905030523 58 296 1.0 4.0 0.00 0.17 0.00 89 1022.7
20260905025608 58 258 1.0 4.0 0.00 0.17 0.00 89 1022.6
20260905024110 58 297 1.0 2.0 0.00 0.17 0.00 88 1022.5
20260905022534 58 288 1.0 4.0 0.00 0.17 0.00 88 1022.4
20260905021522 59 281 0.0 2.0 0.00 0.17 0.00 89 1022.3
20260905020109 59 293 0.0 2.0 0.00 0.17 0.00 89 1022.0
20260905014545 60 305 0.0 4.0 0.00 0.17 0.00 90 1021.8
20260905013531 60 286 0.0 4.0 0.00 0.17 0.00 90 1021.8
20260905012521 60 285 1.0 2.0 0.00 0.17 0.00 90 1021.8
20260905011608 60 0.0 2.0 0.00 0.17 0.00 90 1021.8
20260905010109 60 293 0.0 2.0 0.00 0.17 0.00 89 1021.6
20260905004556 60 270 1.0 2.0 0.00 0.17 0.00 89 1021.6
20260905003610 61 305 1.0 4.0 0.00 0.17 0.00 89 1021.6
20260905002111 61 236 1.0 4.0 0.00 0.17 0.00 89 1021.3
20260905000545 61 0.0 2.0 0.00 0.17 0.00 88 1021.2
20260904235534 61 315 1.0 6.0 0.00 0.17 0.00 88 1021.2
20260904234520 61 338 0.0 2.0 0.00 0.17 0.00 89 1021.1
20260904233610 61 315 0.0 4.0 0.00 0.17 0.00 88 1021.1
20260904232556 62 0.0 2.0 0.00 0.17 0.00 88 1021.3
20260904231522 61 299 2.0 6.0 0.00 0.17 0.00 87 1021.0
20260904230056 62 158 2.0 2.0 0.00 0.17 0.00 88 1021.3
20260904225109 62 317 3.0 9.0 0.00 0.17 0.00 88 1021.2
20260904224055 62 293 2.0 4.0 0.00 0.17 0.00 89 1021.1
20260904223020 62 293 1.0 9.0 0.00 0.17 0.00 90 1020.9
20260904222109 62 293 0.0 4.0 0.00 0.17 0.00 91 1020.8
20260904220520 62 287 2.0 4.0 0.00 0.17 0.00 92 1020.5
20260904215609 62 174 1.0 4.0 0.00 0.17 0.17 93 1020.6
20260904214109 61 293 0.0 2.0 0.00 0.17 0.17 93 1020.4
20260904212532 61 0.0 2.0 0.00 0.17 0.17 93 1019.9
20260904211523 61 0.0 0.0 0.00 0.17 0.17 93 1019.6
20260904210055 61 0.0 0.0 0.01 0.17 0.17 92 1019.4
20260904205021 61 0.0 2.0 0.02 0.17 0.17 92 1019.0
20260904204111 62 236 0.0 2.0 0.02 0.17 0.17 92 1019.2
20260904202556 62 0 0.0 2.0 0.02 0.17 0.17 92 1018.7
20260904201610 62 270 0.0 2.0 0.02 0.17 0.17 92 1018.9
20260904200557 63 259 1.0 2.0 0.14 0.15 0.15 92 1018.9
20260904195608 63 276 2.0 8.0 0.15 0.15 0.15 92 1018.7
20260904194109 63 296 2.0 6.0 0.14 0.14 0.14 92 1018.2
20260904192555 63 250 3.0 6.0 0.14 0.14 0.14 92 1017.8
20260904191610 63 323 3.0 9.0 0.14 0.14 0.14 91 1018.0
20260904190556 63 304 3.0 6.0 0.01 0.01 0.01 91 1018.2
20260904185608 63 306 3.0 9.0 0.00 0.00 0.00 90 1017.7
20260904184110 62 260 1.0 4.0 0.00 0.00 0.00 91 1017.4
20260904182557 62 336 1.0 4.0 0.00 0.00 0.00 90 1017.4
20260904181521 62 0.0 2.0 0.00 0.00 0.00 87 1017.4
20260904180032 64 355 0.0 4.0 0.00 0.00 0.00 82 1017.4